Tracking 29510 objects as of 15-Sep-2024
HD Live streaming from Space Station
objects crossing your sky now

STARLINK-5392

Track STARLINK-5392 now!
10-day predictions
STARLINK-5392 is classified as:


NORAD ID: 54794
Int'l Code: 2022-175AN
Perigee: 499.0 km
Apogee: 515.0 km
Inclination: 53.2 °
Period: 94.6 minutes
Semi major axis: 6877 km
RCS: Unknown
Launch date: December 17, 2022
Source: United States (US)
Launch site: AIR FORCE EASTERN TEST RANGE (AFETR)
Your satellite tracking list
Your tracking list is empty




NASA's NSSDC Master Catalog

Two Line Element Set (TLE):
1 54794U 22175AN  24259.48901534  .00018324  00000-0  80371-3 0  9992
2 54794  53.2110 291.3686 0011619  25.3706 334.7861 15.21990650 96464
Source of the keplerian elements: AFSPC